Theta_e
324 324 325 326 326 326 326 326 326 326 326 326 326 326 326 325 326 326 326 326 326 325 324 325 325 325 325 323 324 324 323 323 324 323 322 322 322 322 321 321 320 321 320 320 321 322 321 319 318 317 317 317 316 316 316 317 315 314 314 314 313 312 311 309 307 307 310 301 303 304 300 301 302 302 302 301 300 297 293 295 296 296 296 296 296
321 323 324 325 325 325 326 326 326 326 325 325 325 325 326 326 326 326 325 325 325 324 324 324 324 324 323 323 322 322 322 322 322 322 321 320 319 320 319 317 318 318 317 316 316 316 316 315 314 313 313 313 313 313 313 312 310 310 310 309 310 311 311 308 306 305 305 303 303 300 301 301 304 302 302 301 300 297 296 296 296 296 295 295 295
320 321 322 323 323 325 325 325 325 324 324 324 324 324 325 326 326 325 325 325 324 323 323 323 322 322 322 322 322 320 320 320 320 320 319 319 318 318 318 317 316 315 313 313 314 314 313 313 313 313 312 310 310 312 312 309 308 308 309 309 307 309 309 306 305 302 303 304 305 304 301 300 301 301 298 298 298 297 296 296 295 294 293 293 293
318 319 320 321 322 322 323 323 323 323 322 323 323 324 324 325 325 324 323 323 321 320 322 322 321 321 320 319 319 319 318 318 318 318 319 318 316 317 317 316 316 316 315 314 313 312 311 311 312 313 309 307 307 306 305 304 304 304 305 305 305 305 305 302 303 304 298 299 301 303 299 298 298 296 296 294 294 294 294 294 294 293 293 293 292
313 315 316 317 317 318 319 320 320 320 321 322 322 323 323 323 322 321 319 319 318 317 317 318 318 317 317 317 316 316 317 317 317 316 317 318 316 316 317 315 314 314 315 315 307 313 311 311 311 310 307 305 305 304 304 302 303 303 304 305 302 303 298 298 298 298 298 298 299 297 294 295 295 295 294 294 294 293 292 292 292 293 293 293 292
308 310 311 312 313 313 314 316 316 318 319 319 320 320 319 318 316 316 316 316 315 314 314 312 312 313 314 315 315 315 316 316 315 315 315 314 316 317 316 315 315 314 313 313 312 311 310 309 311 309 306 306 307 306 304 301 301 299 299 299 298 296 296 296 296 296 296 297 296 296 295 297 297 296 293 293 293 293 294 293 292 292 291 291 291
302 304 306 307 309 310 310 311 312 314 314 315 316 315 314 313 313 313 312 314 314 312 311 311 309 311 312 313 313 314 316 314 313 313 313 312 311 311 312 313 312 310 310 308 307 307 308 309 306 304 303 304 306 305 303 300 300 299 299 299 297 296 297 296 294 294 294 295 295 296 297 296 294 295 292 291 291 291 291 293 294 294 291 291 291
299 300 302 303 305 308 309 309 309 310 311 311 312 312 311 311 310 310 308 309 311 310 310 309 309 308 311 312 312 311 312 312 311 312 313 312 309 309 309 308 306 306 304 304 303 302 303 305 306 304 305 305 305 306 304 301 298 298 298 298 297 298 298 296 294 294 294 294 294 295 294 294 291 290 289 289 290 291 290 291 291 292 293 291 290
298 298 300 301 303 305 306 306 306 306 306 307 307 308 308 308 307 307 306 307 307 308 309 308 308 306 307 308 309 309 309 310 310 310 308 307 308 307 306 306 305 303 300 299 299 300 300 301 302 303 303 296 295 298 298 298 301 298 298 298 297 295 295 294 293 293 294 295 295 295 293 292 294 294 293 292 292 293 294 291 289 290 289 288 290
298 298 299 300 302 303 303 303 302 303 302 303 305 305 305 304 304 302 303 302 303 302 303 305 306 306 304 302 304 305 306 307 301 299 301 306 306 308 306 305 303 301 299 297 295 294 297 298 301 293 291 290 290 291 293 293 294 300 301 297 295 294 292 292 292 293 292 291 294 293 293 294 296 297 295 295 294 293 291 289 287 289 288 287 288
298 299 300 300 300 300 301 301 300 299 300 300 301 301 301 300 300 300 299 299 301 300 301 303 302 304 304 303 301 302 304 305 297 298 300 301 307 308 305 302 301 299 297 297 296 295 295 295 295 291 289 288 290 289 291 291 291 291 292 293 293 296 292 291 292 293 293 293 294 292 294 295 297 297 295 294 293 291 288 288 287 287 286 285 284
299 299 299 299 299 299 299 300 299 299 299 298 299 298 299 298 297 298 298 297 298 298 299 302 302 302 303 303 302 302 302 296 296 297 298 298 299 304 304 302 301 301 299 299 300 298 296 295 294 294 294 295 297 295 291 289 290 290 291 291 291 292 293 293 292 292 291 292 293 293 293 295 294 294 293 291 290 289 288 286 285 285 284 284 284
299 299 299 298 297 297 298 299 299 298 298 297 297 297 297 296 297 297 298 298 297 298 300 301 301 299 300 300 300 300 299 295 295 296 296 297 297 300 304 304 301 299 300 300 300 298 296 293 292 293 295 288 290 295 295 293 288 289 289 289 289 290 292 291 291 294 292 291 291 292 294 294 292 292 290 288 287 285 285 285 285 285 284 284 284
299 298 297 297 297 297 296 297 298 297 296 295 295 295 295 295 296 297 297 297 298 298 298 298 298 297 297 299 299 298 298 294 294 295 295 296 296 298 305 303 301 300 298 298 297 296 295 295 294 293 294 291 293 293 293 293 290 290 290 291 291 288 288 289 289 288 290 292 292 290 292 292 289 289 287 286 284 284 284 284 284 284 283 283 284
299 298 298 298 297 297 297 296 296 296 296 294 294 294 295 296 296 296 296 296 297 298 298 297 297 295 296 297 298 297 298 294 294 294 295 296 296 297 303 302 300 299 298 297 296 296 295 295 296 297 296 292 291 291 292 291 290 288 287 287 288 287 288 289 289 290 290 291 291 291 289 288 287 287 286 286 286 285 285 284 283 283 283 284 284
300 299 298 298 298 297 297 297 296 295 294 293 293 293 294 295 295 295 295 296 297 297 296 296 296 295 295 294 295 297 299 293 293 294 295 295 295 298 299 298 297 297 296 295 296 296 296 297 297 297 296 292 289 289 289 290 287 286 286 286 285 285 286 285 286 287 288 288 288 287 287 286 286 287 287 287 287 286 285 285 284 283 283 283 283
299 299 298 299 298 298 297 296 295 295 294 294 294 294 294 294 295 296 295 295 295 295 296 295 295 295 294 293 294 296 297 294 292 293 294 295 295 297 297 294 296 296 296 295 294 295 296 297 297 295 293 292 289 289 289 288 286 286 285 285 285 285 285 285 286 287 287 287 287 287 287 288 288 288 288 288 287 286 285 284 283 283 282 282 283
300 300 300 300 299 299 298 296 295 294 294 294 293 294 294 295 295 293 294 294 293 294 294 293 293 293 293 293 294 294 294 293 291 293 294 294 294 294 294 294 293 293 296 296 295 294 294 288 290 294 291 290 288 289 289 288 286 286 285 285 284 284 284 284 284 285 286 286 286 285 285 285 286 286 286 286 286 286 285 283 283 283 282 282 281
300 300 301 301 300 299 298 297 296 295 294 294 294 293 294 293 293 292 293 293 293 293 291 292 291 290 292 292 289 292 293 291 290 292 293 294 294 294 294 293 292 292 292 292 291 291 291 287 286 289 289 289 288 289 289 287 286 286 286 285 285 284 284 284 284 284 284 284 284 284 283 283 284 284 284 284 284 285 285 284 284 283 282 282 281
301 301 300 299 299 298 298 296 295 295 294 294 294 293 293 292 292 291 291 293 293 293 291 291 290 291 290 290 290 292 293 293 291 291 292 293 293 293 293 294 292 291 292 291 288 288 288 288 287 287 289 289 289 290 289 287 287 286 286 285 285 284 285 284 284 284 283 283 282 283 282 282 282 282 282 282 283 284 284 284 284 283 282 281 281
299 298 298 298 298 298 298 297 295 293 293 293 293 292 293 292 292 291 290 292 292 291 290 290 290 290 291 291 291 291 293 294 290 290 291 292 293 292 292 292 292 292 291 290 289 287 286 286 286 287 288 288 289 289 289 288 287 286 286 286 286 286 285 283 282 283 282 281 281 282 282 282 282 282 282 282 282 282 282 282 282 282 282 280 280
297 296 297 296 296 296 294 293 292 292 291 291 291 291 291 291 290 290 292 291 289 289 289 290 290 290 291 290 290 291 290 290 294 289 290 292 292 292 292 292 293 292 291 290 290 290 288 286 286 286 287 288 288 289 289 288 287 287 286 287 287 285 284 283 282 282 282 282 282 282 282 282 281 281 281 281 281 281 281 281 281 280 281 281 280
295 296 295 295 292 291 291 290 290 291 290 290 290 290 290 289 289 289 289 289 289 289 289 289 289 290 290 290 290 291 292 290 289 290 289 291 292 292 292 292 292 291 291 290 290 291 290 288 287 285 286 287 288 289 289 289 287 287 287 287 286 285 283 283 282 282 282 282 282 281 281 281 281 280 281 280 280 280 280 280 279 279 279 279 279
291 292 290 291 290 289 289 289 289 290 290 290 290 289 289 289 289 290 290 290 290 289 290 289 289 289 289 290 290 291 291 291 288 288 289 289 291 292 292 292 291 290 291 292 292 291 288 286 285 285 286 287 288 289 289 288 287 287 287 286 285 283 283 282 282 282 281 281 280 280 280 280 280 280 280 280 280 280 279 279 279 278 278 278 278
289 289 289 289 289 289 289 289 289 289 289 290 289 289 288 288 289 289 289 289 290 290 290 289 289 290 290 290 291 291 290 291 290 288 287 288 290 291 291 291 291 291 290 290 290 290 287 285 285 285 286 287 288 288 288 287 287 287 287 286 284 284 283 283 282 281 280 279 280 280 280 280 280 280 280 280 279 279 278 278 278 278 277 277 277
288 288 288 288 289 288 288 288 288 288 288 290 290 291 290 289 290 290 290 290 290 289 290 290 290 289 290 291 291 291 290 290 289 290 287 287 287 289 290 290 288 288 288 289 287 287 285 285 285 285 285 286 287 287 287 287 286 286 286 285 285 285 284 283 282 281 280 280 280 280 280 280 279 279 279 279 278 278 278 277 277 277 277 277 276
287 288 288 289 289 288 288 290 290 289 288 289 290 291 291 291 290 290 290 289 289 290 290 290 290 290 290 290 291 292 291 290 289 289 289 289 289 288 288 289 287 286 287 286 285 285 284 284 285 285 286 285 285 285 285 284 283 283 283 284 285 285 284 283 282 281 281 280 280 280 280 280 279 278 278 278 278 278 278 277 277 277 276 276 275
288 288 288 289 289 289 289 288 289 290 289 289 289 290 290 290 290 290 290 290 290 290 290 290 290 290 290 291 291 291 291 289 289 289 290 289 290 290 289 289 288 288 287 285 286 284 284 284 284 284 282 282 282 282 282 282 281 281 283 284 285 284 283 283 282 282 281 281 280 280 279 278 278 278 278 277 277 278 278 277 277 276 276 275 274
287 287 287 289 289 289 289 289 290 290 290 289 290 290 290 290 290 290 290 292 292 291 291 291 291 292 292 291 291 291 291 290 290 290 290 288 288 289 289 288 288 286 286 286 283 283 282 282 281 280 280 280 280 280 280 280 279 279 278 280 280 280 281 280 280 280 280 280 279 278 278 278 278 278 277 277 277 277 278 276 276 275 276 276 274
287 287 288 289 288 289 289 289 289 289 290 290 289 289 288 288 290 291 291 289 288 288 289 292 292 293 292 293 293 292 292 292 289 288 288 288 288 289 288 288 288 287 285 285 283 282 281 280 280 280 280 280 280 279 279 279 278 278 278 279 278 279 280 280 280 280 279 279 279 278 277 277 277 277 276 276 277 277 277 276 275 276 274 274 274
288 289 288 289 289 288 289 289 288 289 288 289 289 288 288 289 287 287 288 288 288 288 288 288 288 289 291 292 291 290 290 289 287 287 286 287 288 288 288 288 287 286 285 284 282 281 280 280 280 280 280 280 280 279 279 279 278 278 278 278 278 278 278 279 279 279 278 278 278 278 277 277 277 277 276 276 275 276 276 276 275 275 274 274 273
287 288 288 288 288 289 289 289 288 288 289 289 288 288 288 288 289 288 287 287 287 287 288 288 288 288 288 289 290 292 288 287 287 286 286 286 287 287 287 288 287 286 285 286 283 281 281 281 280 280 280 280 280 279 279 279 279 278 278 277 278 278 278 278 278 278 278 277 277 277 277 276 276 276 276 276 276 275 275 275 275 274 274 274 273
282 284 285 286 287 288 288 288 288 288 288 287 287 288 288 288 288 289 288 286 286 287 287 287 288 288 289 288 288 289 288 287 287 286 286 286 286 286 287 287 287 286 286 285 285 281 280 280 280 280 280 279 280 279 279 279 279 278 278 278 278 278 278 277 276 277 277 277 277 276 276 276 276 276 276 275 275 274 275 274 274 274 273 272 272
280 281 283 284 285 287 288 288 288 288 288 288 288 288 288 288 288 288 288 288 286 286 286 286 287 287 288 288 288 288 288 287 286 286 286 286 286 286 286 286 287 287 285 284 284 281 280 279 279 279 279 279 279 279 279 279 279 279 278 278 278 277 276 275 276 276 277 277 277 276 276 276 276 275 275 274 274 274 273 273 273 272 272 272 271
280 279 278 279 283 285 287 288 288 288 288 288 288 288 288 288 288 288 288 287 287 287 287 287 286 286 287 287 288 288 287 287 286 286 286 286 286 286 287 285 283 283 284 283 282 281 279 279 279 279 279 278 278 278 278 278 278 278 278 277 277 277 276 276 277 277 276 277 276 276 275 275 275 274 274 273 273 272 272 272 273 273 272 271 271
280 281 282 282 283 284 285 286 287 287 287 288 288 288 288 288 287 288 288 287 287 287 286 286 285 285 285 286 287 287 287 287 286 286 286 286 286 287 283 282 282 282 281 281 280 280 280 280 279 278 278 278 278 278 278 277 277 278 278 277 277 277 276 276 276 276 276 276 275 275 274 274 274 273 273 272 272 271 272 272 272 272 272 271 271
280 281 282 283 284 284 285 286 286 287 287 287 288 288 287 287 287 287 287 287 286 286 287 283 282 283 284 284 285 286 286 286 286 286 286 286 286 286 285 284 282 281 279 279 279 279 279 279 279 278 278 277 277 277 277 277 277 277 277 277 277 276 276 276 275 275 274 274 273 273 273 273 273 273 272 271 272 272 272 272 272 271 271 270 270
278 279 280 282 283 283 284 285 285 285 286 286 287 287 287 287 286 286 286 286 285 284 283 282 282 283 283 283 285 285 285 285 285 285 285 285 285 285 286 284 283 281 279 278 278 278 278 278 278 277 277 277 276 277 276 275 275 274 273 273 274 274 274 273 273 272 272 272 271 271 271 271 271 271 271 271 271 271 271 271 270 269 269 269 269
278 279 280 280 281 282 283 284 284 285 285 285 286 286 285 286 285 285 285 285 283 282 282 282 282 282 283 283 283 284 284 283 283 282 283 284 284 284 283 281 280 279 277 277 276 276 276 276 276 275 275 275 274 273 272 272 272 272 272 272 272 272 271 270 269 269 269 268 268 269 269 269 270 270 270 270 269 270 269 269 269 269 268 268 269
277 278 279 280 280 281 282 282 283 284 283 284 284 285 284 284 284 284 284 283 282 281 281 281 281 282 283 282 282 283 282 282 282 282 282 281 280 279 279 278 277 276 275 274 274 274 274 273 272 272 271 271 271 271 271 271 271 271 271 271 271 270 269 268 267 267 267 267 267 267 267 268 268 268 268 269 268 269 268 268 269 269 269 269 269
276 277 276 279 279 280 280 281 281 282 283 283 284 284 283 283 283 283 283 282 282 281 280 280 281 282 281 280 282 283 283 282 281 279 278 278 277 276 276 276 276 275 274 273 273 272 272 271 271 270 270 270 270 269 270 270 270 270 269 269 268 267 266 266 265 265 265 265 265 265 265 266 266 266 265 266 267 267 267 267 267 267 267 267 267
275 276 277 278 278 279 279 279 280 280 280 281 282 282 282 282 283 282 282 281 280 280 279 280 279 277 278 279 281 281 282 280 277 276 275 274 273 274 273 273 274 274 274 272 271 271 270 270 270 270 269 269 268 268 268 268 268 267 267 266 265 265 264 264 264 264 264 264 264 264 264 264 264 265 265 265 265 266 265 266 266 266 267 267 267
274 275 276 276 277 277 278 279 279 280 280 280 280 278 280 281 281 281 280 279 279 279 278 276 274 275 275 278 277 276 274 274 272 273 272 273 272 271 270 271 271 271 271 271 271 271 270 269 269 268 268 267 267 267 267 266 266 265 265 264 264 264 264 264 263 263 263 263 263 263 263 263 264 264 264 264 264 264 264 264 265 265 266 266 266
272 274 275 275 276 276 277 277 277 278 278 277 278 279 279 279 279 279 279 278 277 277 276 275 274 273 273 274 273 273 272 272 271 271 270 270 269 268 268 268 268 269 269 269 269 269 269 268 267 266 266 265 265 265 265 265 265 264 264 264 263 263 263 263 262 262 262 262 262 262 262 262 263 262 262 263 263 262 263 264 264 264 264 264 264
273 274 274 275 275 275 275 276 276 276 276 276 276 277 276 277 277 278 277 276 275 275 275 274 273 273 272 271 271 271 271 271 270 269 269 268 268 267 267 267 267 267 267 267 268 267 267 266 265 264 263 263 263 263 263 264 264 264 264 264 263 263 263 262 263 263 263 262 262 262 262 261 261 262 261 262 262 262 263 263 263 262 262 263 263
272 273 273 274 274 274 274 275 274 275 275 275 275 275 275 276 276 276 275 275 274 273 273 272 272 271 271 271 270 269 269 269 268 267 267 267 266 266 266 266 266 266 266 265 265 265 265 264 263 263 263 263 262 263 263 262 262 263 263 263 263 263 263 263 263 262 262 262 262 262 262 262 261 262 262 262 262 262 262 262 262 262 262 262 262
271 272 273 273 273 273 273 273 273 273 274 274 274 274 274 274 275 274 273 273 272 271 271 270 270 270 270 269 268 268 268 267 266 266 266 266 265 265 265 265 264 264 264 264 264 264 264 263 263 263 262 262 262 261 261 261 261 261 261 262 261 261 261 261 261 262 262 262 262 262 262 261 261 262 261 262 261 261 261 261 261 261 261 262 261
271 272 272 273 273 273 273 273 272 271 272 272 273 273 273 273 272 271 271 270 270 270 269 270 269 269 268 268 268 267 267 266 266 265 265 264 264 264 264 263 263 263 263 263 263 263 263 263 263 262 262 261 261 260 260 260 260 261 261 261 261 261 261 261 261 261 262 262 262 261 261 261 261 261 261 261 260 261 260 260 261 261 261 261 261
271 271 272 272 272 272 272 272 272 272 272 272 272 271 271 271 271 271 270 269 269 269 268 268 268 268 267 267 267 266 266 265 265 264 264 263 263 263 263 263 263 262 262 262 262 262 262 262 262 262 261 261 261 260 260 260 260 260 260 260 260 260 260 261 261 261 262 262 262 262 262 261 261 260 261 260 260 261 261 260 261 260 261 261 261
271 271 271 271 271 271 272 272 272 272 272 271 271 270 270 270 269 269 269 268 268 268 268 268 267 267 266 266 265 265 264 264 263 263 263 263 263 262 262 262 262 262 262 261 261 261 261 261 261 261 261 261 260 260 260 260 259 259 259 260 261 261 261 261 261 261 262 262 262 262 261 261 261 261 261 260 260 260 260 260 260 260 260 260 259
270 270 270 270 270 271 271 271 271 271 270 270 270 269 269 268 268 268 267 267 266 266 266 266 266 266 266 265 264 264 263 263 262 262 262 262 262 261 261 261 261 261 261 261 260 260 260 260 260 260 260 259 259 259 259 259 259 259 259 261 262 262 262 262 262 262 262 262 262 262 261 260 260 259 260 260 260 259 259 259 259 259 259 260 260
Wind_Speed
11 12 11 12 12 14 13 13 16 14 16 15 15 14 12 12 13 13 11 13 14 13 15 15 15 15 14 13 14 13 12 12 11 10 10 10 9 9 9 9 10 8 7 8 8 10 9 8 8 7 5 7 5 6 6 7 6 5 4 3 4 3 4 4 7 9 5 2 3 2 1 1 3 2 4 4 2 2 3 4 5 5 5 6 6
11 11 10 10 12 12 13 11 12 15 14 15 16 15 14 14 14 14 14 15 14 15 15 14 14 14 13 14 13 13 10 11 10 10 10 9 9 8 8 8 8 8 7 9 8 7 7 8 7 6 5 6 6 6 6 6 5 5 5 5 5 6 6 6 6 6 9 2 2 1 1 2 4 2 3 4 3 1 3 4 3 5 5 5 5
9 8 9 9 11 11 11 12 14 15 16 15 16 16 16 16 14 15 15 14 13 14 14 14 13 13 13 12 12 11 11 10 9 9 10 10 9 9 9 9 9 8 8 8 7 6 8 8 8 6 5 6 6 6 5 5 4 5 5 4 5 6 6 6 5 6 8 7 3 3 2 2 4 1 0 2 3 2 4 4 4 3 4 5 5
5 7 7 8 9 9 10 11 15 15 16 15 17 17 15 15 14 14 14 12 11 10 11 12 11 11 11 10 10 10 10 10 9 9 10 10 9 9 8 8 7 8 8 8 8 7 7 7 7 6 6 6 6 5 5 4 5 5 5 5 5 6 5 5 6 6 4 6 2 3 1 1 2 1 1 1 2 3 3 4 4 4 5 4 5
4 5 6 8 7 8 10 12 15 16 17 16 17 17 14 11 8 10 7 7 8 7 8 7 9 9 10 11 10 10 10 10 10 10 10 9 9 8 8 8 8 8 8 8 9 8 8 8 7 7 7 7 6 6 5 6 6 5 6 6 7 6 4 4 5 4 5 7 4 1 1 1 1 1 0 2 3 4 4 5 4 4 5 5 4
4 5 5 7 8 10 11 13 15 17 16 15 14 11 8 8 7 8 8 10 8 8 9 9 9 10 9 10 10 10 10 11 10 10 9 8 8 9 8 9 9 8 8 8 8 8 8 8 8 8 7 9 8 7 7 7 6 6 6 5 5 5 5 4 4 5 5 6 5 3 2 1 2 2 3 2 3 4 4 4 4 5 5 5 5
5 5 7 10 11 12 12 13 12 13 12 12 9 7 8 8 8 8 8 9 10 9 9 9 9 9 9 9 10 11 11 10 9 9 9 8 8 8 9 9 8 7 8 8 7 7 8 9 8 7 8 9 8 8 8 6 7 7 8 7 6 7 7 7 6 5 5 5 4 3 3 1 2 3 2 1 2 3 4 6 6 3 4 4 5
5 6 7 8 11 11 12 11 11 11 9 8 8 8 7 8 9 8 7 9 9 10 11 10 9 9 10 10 10 9 9 9 9 9 8 9 8 9 8 8 6 6 7 8 8 7 7 7 8 8 9 8 8 8 7 8 6 7 6 6 6 6 6 5 5 5 5 4 3 3 3 3 2 2 1 1 2 4 4 3 6 6 5 3 3
5 5 6 8 9 7 6 9 8 8 9 9 8 8 8 8 7 7 8 10 9 9 9 9 9 10 9 10 9 9 9 9 9 9 9 8 8 9 9 8 8 7 7 6 6 7 7 7 7 7 9 8 10 8 8 8 7 7 5 6 6 6 5 4 5 4 4 4 4 4 3 4 4 3 3 3 4 3 2 1 4 4 3 4 3
5 6 7 8 5 4 6 7 8 9 9 10 11 9 8 8 8 8 9 8 8 8 8 9 10 11 10 9 8 8 9 7 9 13 12 11 9 8 7 8 9 8 7 7 5 5 5 7 7 8 9 9 9 10 9 9 9 6 6 6 7 7 4 4 4 4 4 3 4 3 3 4 4 5 4 3 2 3 3 3 3 3 2 3 3
6 7 8 6 5 5 5 6 8 10 10 9 9 8 9 8 8 8 8 8 9 9 8 10 10 9 10 9 9 8 8 7 12 13 14 15 11 8 8 8 9 8 7 8 8 8 7 6 5 6 7 6 7 9 8 8 7 7 4 7 8 8 5 5 4 4 4 4 3 3 4 5 4 3 2 2 2 2 2 2 2 2 2 3 3
6 7 6 5 5 6 7 7 7 10 10 11 10 8 7 8 9 9 8 9 8 7 9 10 9 8 7 7 9 9 8 8 12 13 13 13 11 9 9 10 9 8 7 8 8 8 9 7 6 6 6 7 7 6 6 6 7 7 7 8 9 8 3 3 4 4 4 4 3 3 3 4 2 2 2 1 1 1 1 1 1 1 2 2 2
5 6 6 6 7 7 8 9 9 10 11 9 8 7 8 9 9 9 10 8 6 9 9 8 9 7 8 9 9 8 7 9 12 13 13 12 12 10 7 8 9 8 8 8 8 9 9 9 8 5 5 7 6 6 6 6 6 7 7 7 6 6 4 1 1 1 2 3 2 2 4 3 2 2 2 1 0 1 1 1 1 1 2 2 3
6 7 6 7 7 8 10 10 11 11 8 7 7 8 9 11 9 8 7 7 9 9 8 10 8 8 9 9 8 7 7 9 13 12 12 13 14 11 7 8 8 8 9 8 8 8 10 10 8 6 7 7 7 7 7 7 6 5 5 5 4 4 3 3 4 3 0 2 2 3 2 1 1 1 3 3 1 1 1 2 1 2 2 3 4
6 7 7 8 7 8 10 10 11 10 9 8 8 9 10 10 10 9 8 9 10 11 10 9 8 7 8 7 7 8 8 11 13 13 13 13 13 12 7 8 8 9 9 9 9 9 9 8 8 8 9 8 7 9 9 9 6 5 4 3 4 3 3 3 3 2 3 2 2 1 2 2 1 1 2 2 2 2 1 1 1 2 2 3 5
6 6 8 8 9 9 9 10 10 10 8 8 10 13 11 11 10 8 7 7 7 6 6 7 9 9 8 7 7 10 8 11 12 13 13 13 13 9 9 10 9 8 9 9 7 7 8 9 8 9 8 8 10 12 9 6 5 6 6 3 3 3 3 4 5 4 3 2 2 2 2 3 2 2 1 1 1 2 1 2 1 2 2 3 3
7 8 9 8 8 7 8 9 10 10 9 10 12 13 12 10 8 7 9 9 9 9 9 8 7 7 8 8 9 9 8 10 13 13 14 14 12 9 8 5 7 8 8 7 6 6 6 8 8 7 8 9 10 12 11 9 6 7 7 7 3 3 4 4 6 7 6 6 6 7 6 6 5 5 4 3 0 1 1 1 2 0 2 2 2
8 7 9 8 6 7 7 9 10 10 10 13 13 11 9 7 9 6 10 10 10 9 6 7 6 7 8 10 10 10 9 9 14 15 15 16 14 8 6 6 7 5 7 7 6 6 6 9 9 10 7 6 10 12 12 9 7 8 8 9 7 4 4 3 3 4 8 9 9 9 8 7 6 7 7 6 4 2 1 1 1 0 2 2 2
7 9 9 4 4 6 7 8 10 10 13 13 11 11 11 10 7 5 8 7 7 6 5 6 5 5 7 8 8 11 9 8 13 15 16 17 14 8 7 7 7 7 6 6 6 6 7 6 8 7 6 7 13 13 14 10 5 6 7 7 6 6 5 6 6 6 5 4 4 5 4 4 3 3 5 7 7 4 2 2 1 1 1 1 1
14 8 5 3 5 6 7 9 10 11 12 11 10 10 7 6 8 8 7 7 5 4 5 5 7 7 5 7 8 11 10 8 11 15 15 15 16 9 6 7 9 8 7 7 6 6 6 6 6 7 8 10 13 14 15 14 8 6 6 6 7 8 8 7 6 6 5 5 4 4 4 4 4 4 3 4 4 5 3 2 1 1 1 1 1
4 5 3 4 6 7 7 9 11 10 9 8 7 6 6 7 6 7 7 6 6 5 7 6 7 7 6 7 7 8 9 8 8 15 16 16 16 14 7 8 5 6 7 8 7 6 5 5 3 8 11 12 14 15 15 14 10 7 7 6 6 8 9 7 6 7 5 5 4 4 4 3 3 3 3 3 3 3 3 3 1 1 1 1 1
3 3 6 6 7 8 8 5 6 6 5 5 6 7 5 4 5 5 5 6 8 9 7 8 8 7 6 7 8 8 8 11 9 13 17 18 18 19 10 9 8 8 8 7 7 9 7 6 6 10 13 13 13 14 14 13 10 6 6 6 11 15 9 7 7 6 6 5 5 4 4 4 4 3 3 3 3 3 2 2 2 2 1 1 1
4 5 5 6 6 6 6 7 7 4 5 5 6 5 4 4 5 5 6 6 8 9 8 8 8 9 7 5 5 7 8 8 12 12 16 18 18 19 17 10 12 9 10 9 9 9 5 7 7 11 13 11 11 12 13 12 10 6 10 10 13 13 10 6 6 6 5 5 5 5 4 4 4 4 3 3 3 3 2 2 2 2 2 2 2
2 4 4 5 5 5 5 5 5 4 5 5 5 5 4 4 4 5 6 6 7 8 7 7 8 8 10 7 7 7 7 6 9 12 13 19 18 18 18 16 13 10 8 7 6 5 6 6 4 9 10 11 12 13 13 13 8 12 14 15 13 11 6 6 6 6 5 5 5 5 5 4 4 4 4 3 3 3 3 2 2 2 1 1 2
4 4 4 4 4 3 3 3 4 5 5 6 6 6 6 6 6 5 6 6 6 7 7 6 8 8 6 7 7 7 5 7 6 11 14 15 18 18 17 16 12 11 8 4 6 7 10 13 14 15 13 13 12 12 11 12 10 13 14 15 13 7 7 6 6 6 6 6 6 5 5 5 4 4 4 4 4 3 3 3 3 2 1 2 2
4 4 4 3 3 2 3 3 3 3 3 5 6 6 7 7 8 7 7 7 7 8 8 7 7 7 8 7 8 6 5 6 6 7 9 10 12 15 16 16 14 13 10 6 9 12 13 11 16 16 13 11 9 7 9 10 10 11 12 13 8 7 7 6 6 7 6 6 6 6 6 6 5 5 5 4 4 3 3 3 3 3 2 1 0
5 4 5 3 2 2 3 2 2 3 4 4 5 5 6 6 7 7 7 8 7 8 9 8 8 8 7 7 5 4 7 7 6 6 7 9 8 9 10 11 11 10 6 4 7 7 11 11 9 10 8 11 8 6 6 7 7 6 5 6 7 8 7 7 7 5 5 5 6 6 6 6 5 5 4 4 4 3 3 2 2 2 2 1 1
4 4 4 3 2 2 3 5 4 3 4 6 6 5 6 6 7 8 9 9 9 9 9 8 10 9 9 8 6 7 8 9 8 8 8 8 7 6 7 7 8 7 7 6 8 8 8 7 9 6 6 5 4 4 4 4 3 4 6 6 8 7 6 6 5 4 4 5 6 7 6 6 5 5 4 4 4 3 3 2 3 2 2 2 1
4 4 4 2 3 2 2 2 3 3 3 4 6 6 7 7 7 7 6 5 7 7 7 8 7 7 7 7 7 8 9 10 9 8 7 9 9 9 10 10 8 6 9 12 7 6 5 5 5 6 6 6 6 5 5 5 4 3 5 6 5 6 7 7 7 6 7 7 7 7 6 6 5 5 4 4 4 3 3 3 3 3 1 2 2
3 3 2 2 2 2 2 2 2 3 3 3 4 5 7 8 7 7 6 8 11 11 9 7 5 6 7 7 7 9 10 4 8 12 12 13 14 14 12 13 12 10 14 18 11 8 6 7 7 7 8 7 8 7 7 6 5 5 4 6 6 6 6 6 6 6 6 6 6 6 6 6 5 5 4 4 3 4 3 4 3 3 2 2 2
3 3 2 2 2 2 2 2 2 2 2 2 3 4 4 6 11 11 10 8 8 12 13 13 9 7 5 7 6 9 7 7 14 14 14 14 15 15 14 15 17 20 20 14 8 8 8 7 8 7 8 8 7 7 7 7 6 6 5 5 4 5 5 5 6 6 6 6 6 5 6 5 5 5 4 4 4 3 3 4 3 3 3 3 2
3 3 2 2 3 3 2 2 2 2 2 3 4 4 4 5 5 9 12 12 11 11 13 14 14 13 11 9 7 4 6 10 14 15 16 17 17 16 15 17 18 21 20 19 11 8 6 7 7 8 7 7 6 5 6 6 6 6 6 5 5 4 4 4 3 4 4 4 4 4 5 4 4 4 4 4 4 3 3 3 4 3 3 3 2
5 4 4 3 3 4 3 2 2 3 4 4 4 5 5 5 5 4 4 6 8 10 11 13 15 16 15 14 14 12 9 11 15 16 18 18 18 18 17 19 20 20 20 14 8 6 6 6 6 6 7 6 5 6 6 6 6 6 6 6 5 5 4 3 3 3 3 4 4 4 5 5 5 4 4 4 4 3 3 3 3 3 3 3 2
7 5 4 4 4 3 2 2 3 4 4 4 4 5 5 6 6 4 5 4 3 4 6 9 10 12 13 14 14 14 13 15 16 17 18 18 19 18 18 15 19 23 19 12 10 9 7 7 6 7 7 5 6 5 5 5 5 6 5 5 4 4 4 3 3 4 4 5 5 5 5 5 4 5 4 4 4 3 3 4 4 3 3 3 3
7 7 8 6 5 4 4 4 4 4 4 5 5 6 6 6 6 6 7 7 6 6 5 5 6 8 8 9 12 14 14 15 17 17 18 18 18 19 18 10 11 11 10 5 8 7 7 8 8 7 7 6 7 8 8 8 6 5 6 5 5 5 5 5 6 6 6 5 5 5 5 5 5 4 4 4 4 4 4 4 4 4 3 3 3
7 6 6 6 5 5 4 4 4 5 5 5 5 5 6 6 7 6 6 6 6 6 6 4 3 2 6 9 10 13 13 15 16 17 17 18 18 21 11 9 10 10 10 7 5 5 6 6 7 6 7 8 9 9 9 9 7 7 6 7 8 8 7 7 6 6 6 6 5 5 5 5 5 4 4 4 5 4 3 4 3 3 3 3 3
7 6 6 6 5 5 5 5 5 5 6 6 6 6 6 6 5 5 5 6 6 6 6 3 3 2 2 3 6 10 13 14 15 16 17 17 22 17 10 11 10 10 7 6 6 6 6 6 7 8 9 10 9 9 7 6 7 7 8 8 7 7 7 6 6 6 6 5 5 5 5 5 5 4 5 4 4 4 4 4 3 3 3 3 3
6 6 7 7 7 7 7 6 6 6 6 6 6 6 7 6 5 6 6 7 7 7 7 7 6 6 7 6 6 6 7 9 10 10 12 14 15 11 9 8 8 10 8 6 6 7 7 8 9 9 9 9 9 9 9 7 7 6 5 5 5 5 7 6 4 4 4 5 5 5 5 4 4 4 3 4 4 3 3 3 3 3 3 4 4
6 8 11 12 9 7 7 7 6 6 6 6 6 6 5 6 6 7 7 6 7 7 6 7 8 7 8 7 7 7 8 7 8 9 9 10 10 9 6 7 8 8 7 8 7 8 8 8 7 6 7 7 6 5 5 5 5 5 5 5 5 6 6 4 3 3 3 3 3 3 3 3 3 3 3 3 3 3 3 3 3 3 4 3 4
7 6 6 8 6 6 6 6 7 7 5 5 6 6 6 6 6 7 7 7 8 7 7 8 8 8 8 8 8 9 8 8 8 8 8 8 8 8 8 9 9 10 8 6 6 6 6 6 6 5 5 5 5 5 5 5 5 5 5 5 5 5 3 3 3 3 3 3 3 3 3 3 3 2 1 3 3 3 3 3 3 3 3 3 3
7 7 7 6 7 6 6 6 6 6 6 5 5 5 6 5 6 5 7 8 7 7 8 8 8 6 7 8 12 12 10 9 8 7 7 8 8 8 7 7 9 9 8 8 6 5 6 6 6 6 6 6 6 5 5 5 5 5 5 4 4 4 4 3 3 3 4 4 3 3 3 3 2 3 3 2 3 3 2 2 2 2 3 3 3
8 7 7 6 5 5 5 5 4 6 6 5 6 5 4 5 6 7 6 7 5 6 6 6 5 3 5 10 11 9 7 6 7 6 7 6 5 5 4 4 6 7 7 5 5 6 6 6 6 6 6 6 6 5 5 5 5 5 5 5 5 5 5 4 4 4 4 4 4 3 3 3 3 3 3 3 3 3 3 3 3 2 2 3 3
9 8 7 6 6 6 5 6 5 6 6 5 5 5 6 6 6 5 6 5 6 6 6 5 3 3 4 8 7 8 4 5 6 7 7 7 6 5 4 3 3 3 4 4 4 5 6 7 6 5 5 5 5 5 5 5 5 5 5 5 5 5 5 5 5 4 4 4 4 5 4 4 4 4 3 3 3 2 2 2 2 2 2 2 2
8 7 6 7 6 6 5 6 6 5 6 6 6 4 4 5 5 5 6 6 6 5 6 5 4 5 5 3 4 4 4 6 6 6 7 6 6 5 4 4 4 5 5 5 5 5 5 5 6 5 5 4 4 4 4 4 4 4 5 5 5 5 5 5 5 5 5 5 5 5 4 4 4 3 3 3 3 3 3 3 2 2 2 2 2
7 7 7 6 6 6 6 5 5 5 4 4 5 5 4 5 6 6 6 5 4 5 5 5 6 6 5 6 5 6 6 5 5 5 6 5 6 5 4 4 5 6 5 5 5 5 5 5 6 6 6 5 4 4 4 4 3 3 3 4 5 5 5 5 4 4 4 5 5 5 4 4 4 3 3 3 3 3 2 3 2 2 2 2 3
7 7 6 7 7 5 5 6 4 6 5 5 5 5 5 4 4 5 4 5 4 5 5 5 5 5 4 5 5 4 6 6 4 4 3 4 5 5 4 4 4 5 4 5 5 6 6 6 6 6 6 7 6 5 4 4 3 3 3 2 2 3 4 4 4 5 4 4 4 4 4 4 4 4 4 3 3 3 3 2 2 2 2 2 2
8 7 7 6 7 5 5 5 6 5 5 5 5 5 5 5 5 4 3 3 4 4 6 6 5 6 6 6 5 6 5 4 4 4 4 5 5 5 5 5 5 6 6 6 6 6 6 6 5 6 7 7 6 6 5 4 4 3 3 3 3 4 4 4 5 6 5 4 4 4 5 4 4 4 4 3 3 3 3 2 3 3 2 2 2
7 7 7 6 6 6 6 6 6 6 5 5 5 4 4 4 4 3 4 3 4 4 4 5 5 5 4 5 4 4 5 5 5 5 5 5 5 5 6 6 6 5 6 6 5 5 5 5 6 6 6 6 6 5 5 4 4 4 4 3 3 3 4 5 4 4 5 5 5 5 5 4 4 4 3 4 3 3 3 2 2 2 2 2 2
7 7 6 6 6 6 5 6 5 6 5 5 5 4 3 4 4 5 4 4 5 4 4 5 5 6 6 6 6 6 5 4 5 5 5 5 6 6 5 5 6 6 6 6 6 6 6 6 6 5 5 5 4 4 5 5 4 4 4 3 5 8 9 8 6 5 6 5 4 4 4 4 4 3 3 3 3 3 2 2 2 2 2 2 2
7 7 6 6 5 5 5 5 5 5 4 4 4 4 4 3 3 3 4 4 4 4 4 4 5 6 6 6 7 6 5 5 5 5 5 5 5 5 6 6 6 6 6 6 6 5 5 5 5 5 5 5 5 4 4 4 4 4 4 4 10 11 9 9 7 7 6 4 5 4 4 4 3 3 3 3 3 3 3 3 3 3 2 3 3
6 6 5 5 5 5 5 5 4 4 3 4 4 4 4 3 4 3 4 4 4 4 4 5 5 5 5 6 5 5 5 5 5 5 5 6 6 6 6 6 6 6 6 6 5 5 5 5 4 4 4 4 4 5 4 3 3 3 5 9 11 11 10 9 6 8 8 6 4 4 4 4 4 3 3 3 3 3 3 3 3 3 3 3 3
Wind_Direction
203 208 204 210 210 210 213 214 223 225 227 227 230 228 225 223 226 227 223 222 225 219 219 221 221 220 219 218 219 218 215 216 216 216 218 220 217 214 211 213 219 223 219 223 220 225 228 229 228 224 217 227 229 230 238 235 222 222 221 210 221 217 226 247 260 271 260 170 232 230 137 242 256 211 262 258 247 215 231 264 265 254 250 248 255
205 205 204 206 207 210 211 209 219 226 223 224 225 228 227 226 226 225 225 225 218 216 217 218 218 217 218 219 218 218 213 214 213 213 218 219 219 213 212 208 216 221 217 225 216 216 220 226 228 223 218 233 231 223 217 215 209 209 204 202 219 227 203 222 244 248 262 197 248 134 237 161 271 166 257 289 297 287 258 253 250 251 257 260 258
203 203 205 206 210 210 209 210 220 221 221 222 223 224 227 227 225 223 222 222 213 215 215 215 212 211 215 217 216 213 214 213 212 213 217 216 217 215 212 209 210 213 214 219 217 214 221 221 220 215 214 223 225 226 215 209 202 206 222 208 223 231 225 201 219 244 253 254 234 236 200 184 232 321 285 315 325 323 289 268 259 255 256 265 272
206 209 212 213 211 206 209 212 222 222 222 223 223 224 223 226 223 218 218 214 209 208 211 212 208 210 214 212 212 211 212 214 214 214 216 214 214 212 209 211 212 211 212 212 215 211 218 225 221 220 207 217 223 217 210 203 192 202 209 210 208 225 226 196 219 234 229 249 243 215 127 218 188 121 12 333 294 286 262 277 269 265 269 260 254
209 211 212 215 208 213 212 213 221 221 223 226 226 225 223 222 212 214 210 212 210 202 205 207 207 209 211 213 210 212 212 212 215 216 215 212 210 211 210 209 211 212 214 215 211 209 215 217 215 209 189 209 215 206 204 208 208 204 212 210 197 213 203 203 220 219 228 233 247 216 155 219 111 65 97 282 259 240 243 253 270 272 267 262 258
210 205 206 215 216 218 219 217 222 223 224 226 226 222 217 215 210 211 204 212 206 199 201 204 205 210 211 212 211 212 212 212 214 215 211 209 212 212 210 210 208 211 213 218 215 211 210 208 215 196 192 189 213 212 199 208 206 207 218 220 213 193 194 202 210 215 219 235 225 257 166 210 212 200 157 204 269 287 277 253 240 243 255 264 252
193 200 211 218 224 225 222 222 224 225 226 226 225 219 215 212 207 210 197 209 207 198 200 203 208 209 209 208 213 213 215 211 212 212 209 205 206 206 209 213 205 191 208 214 214 210 204 204 187 177 172 194 207 205 202 208 203 210 208 212 200 189 193 182 178 204 217 226 236 233 257 160 186 245 132 121 284 279 291 300 291 244 219 251 279
197 206 206 216 223 225 224 224 226 226 227 225 222 220 216 213 208 210 195 200 200 194 205 203 205 205 210 211 214 212 211 210 210 209 205 200 197 206 191 203 204 208 207 196 198 197 201 194 193 192 193 201 207 213 197 203 198 213 208 196 194 210 211 185 181 197 207 211 214 211 208 223 201 209 142 169 259 245 214 248 289 297 301 292 263
206 211 217 225 227 224 225 228 225 226 224 226 223 218 218 211 210 206 205 211 212 210 203 203 201 206 214 214 213 208 209 209 203 200 175 179 184 176 172 190 195 199 204 207 205 193 185 197 201 199 202 207 206 210 211 205 193 206 206 186 197 195 201 185 187 181 202 208 219 212 216 217 224 237 242 232 236 270 333 261 278 285 290 297 304
209 218 227 232 234 221 224 231 228 229 226 224 225 222 217 214 210 210 211 209 211 207 203 204 206 207 208 212 212 208 211 207 199 198 192 191 191 196 191 188 182 193 192 197 209 217 209 199 208 209 208 208 207 212 215 210 210 212 201 189 183 190 193 186 188 198 199 207 219 196 211 228 243 247 244 253 275 295 277 269 273 293 296 294 288
208 221 233 229 231 232 228 227 225 227 226 225 220 212 208 207 211 214 212 208 209 205 200 205 210 207 204 199 203 208 211 203 191 198 201 189 187 195 192 164 176 188 191 193 203 187 199 215 215 203 206 210 213 212 216 214 211 214 188 188 190 187 184 188 204 192 197 216 208 198 225 252 255 260 244 258 266 252 276 291 292 299 308 328 323
217 227 236 234 226 226 228 228 224 227 223 223 214 208 207 207 213 211 208 208 207 197 206 209 205 204 202 201 201 201 208 197 188 197 198 192 181 184 181 168 174 193 196 200 205 198 186 204 206 197 203 204 204 204 214 217 211 201 195 199 205 212 214 194 188 194 198 208 207 220 219 235 223 202 214 216 245 259 254 266 267 285 297 296 290
217 237 235 230 230 225 227 227 230 229 225 222 213 209 208 214 215 210 213 204 186 203 210 203 208 199 197 200 204 197 202 190 191 191 188 182 181 183 194 195 192 204 207 209 206 195 191 172 187 200 208 200 199 198 197 198 193 180 172 171 172 185 189 172 0 243 192 204 207 209 220 220 209 186 105 102 49 263 270 262 255 274 281 276 282
210 228 229 229 226 224 224 226 230 229 219 212 210 215 214 214 212 211 203 189 200 206 205 204 199 195 199 200 199 198 204 197 194 191 187 185 187 189 199 195 199 204 199 204 204 201 195 187 193 196 201 195 199 195 193 191 176 164 166 176 171 148 143 139 136 128 250 224 200 206 173 136 194 100 108 135 191 228 256 265 297 281 268 267 291
214 219 224 227 221 224 222 223 229 225 209 204 203 217 218 218 212 204 197 198 200 203 200 200 200 196 199 201 202 206 213 190 196 193 192 191 192 191 201 203 207 209 210 208 205 197 191 193 196 198 199 195 191 187 188 188 179 169 154 149 145 138 141 143 149 154 153 174 208 198 119 132 149 148 134 160 190 233 252 260 254 268 278 281 264
225 219 226 224 219 218 219 222 228 221 210 199 207 213 218 214 210 197 196 205 208 202 208 199 200 203 203 200 209 220 211 192 195 193 191 191 187 195 193 197 203 208 210 206 202 200 195 194 200 204 200 196 192 186 183 158 155 157 154 136 124 119 101 74 73 65 70 86 109 110 101 91 80 96 97 158 184 169 181 183 181 212 251 267 276
229 220 227 225 212 209 213 219 221 218 210 208 217 216 217 216 212 190 199 205 203 206 208 202 204 203 204 209 216 227 221 202 199 197 195 190 185 197 192 195 205 207 209 197 203 206 202 201 202 194 189 200 178 176 174 159 152 161 146 120 132 139 133 108 86 87 97 100 100 104 97 99 101 100 94 81 128 145 175 206 199 221 260 269 279
231 225 232 225 205 203 209 213 218 216 211 216 219 217 216 214 211 192 202 201 208 209 200 205 207 208 208 218 218 227 233 211 206 208 202 198 194 196 198 202 211 210 213 206 207 210 210 205 202 202 185 177 162 171 169 164 162 154 146 146 149 153 139 135 128 101 92 91 90 86 82 84 96 90 76 72 80 165 199 197 84 262 259 266 278
225 224 230 197 189 203 203 210 216 215 218 222 217 214 208 208 198 187 206 203 210 192 195 205 211 211 216 221 212 219 230 216 207 210 206 203 199 199 195 201 202 207 198 200 201 208 203 195 199 198 185 161 166 174 173 175 164 168 163 147 156 163 163 156 151 149 150 143 136 131 110 108 116 111 88 75 64 66 105 128 190 226 246 267 289
220 223 232 192 198 199 200 205 212 214 219 221 215 215 204 197 198 193 198 203 203 198 200 208 214 221 209 212 214 214 216 212 204 209 205 204 197 194 200 201 208 198 194 194 189 201 195 193 195 196 183 167 174 178 179 182 177 171 166 172 160 170 158 156 157 151 148 147 137 132 119 111 114 104 100 93 81 80 85 99 113 197 212 234 246
297 242 194 201 204 205 201 203 211 217 219 218 217 215 208 206 193 194 196 202 200 202 200 208 215 222 213 212 214 215 213 208 201 204 207 203 198 195 201 211 208 196 202 201 201 188 178 190 177 187 185 180 182 186 183 184 183 176 182 182 180 146 137 142 138 133 133 133 135 136 132 127 117 117 116 108 101 101 100 94 99 107 165 201 223
256 209 199 205 204 210 222 224 222 223 217 210 211 217 213 205 203 199 202 199 204 211 207 210 216 218 214 211 214 216 209 210 202 204 208 205 201 199 201 203 196 190 195 205 201 211 202 172 184 186 190 186 188 186 183 183 177 174 186 153 132 139 143 140 140 147 149 151 150 147 146 146 146 136 132 124 114 108 111 109 99 98 77 114 175
239 234 230 223 222 220 217 213 215 211 209 206 213 222 204 199 203 196 199 203 209 214 210 211 211 217 216 208 210 214 211 209 209 205 208 207 206 205 205 199 190 190 193 196 200 204 192 201 195 179 185 183 185 186 185 180 174 188 163 148 148 143 141 149 151 152 153 153 154 155 154 159 161 155 153 143 132 130 127 111 94 91 89 92 77
249 243 241 236 233 230 221 217 211 201 199 194 202 208 208 201 202 208 208 209 213 214 218 213 214 217 216 216 211 209 205 206 207 210 208 207 208 208 207 206 193 200 201 205 196 186 174 176 147 165 179 180 185 188 187 180 190 178 167 159 148 148 151 145 154 152 148 156 162 163 163 164 162 160 157 152 150 144 120 115 107 95 102 107 140
266 258 255 255 249 247 227 218 210 207 195 187 191 192 193 185 201 203 202 214 216 220 224 212 216 221 220 220 216 211 198 204 206 207 211 211 210 207 208 209 205 201 211 220 174 181 179 161 154 166 174 180 182 183 188 190 189 176 172 160 153 163 156 159 158 157 171 176 173 163 159 168 168 158 149 146 140 139 144 149 146 139 121 182 203
297 274 275 262 254 224 223 224 215 211 202 206 207 208 199 195 203 201 197 207 213 220 226 221 224 224 228 226 222 209 199 206 209 206 204 212 214 211 205 204 201 202 210 196 177 164 157 144 158 164 168 171 168 177 190 194 186 180 172 159 171 169 170 168 172 182 184 169 165 162 160 157 153 146 145 151 160 158 156 162 151 162 159 181 186
289 288 281 283 255 206 213 223 192 191 205 214 217 219 215 214 212 212 207 209 210 213 216 213 218 220 222 223 220 212 221 216 208 202 202 206 205 206 206 206 196 185 182 142 146 143 150 152 157 160 151 161 158 150 141 129 140 150 156 174 183 181 182 189 187 186 169 159 159 155 152 148 142 145 161 162 160 158 158 164 155 154 145 199 186
278 280 275 269 267 217 216 206 202 200 196 204 211 211 213 213 216 216 214 213 214 220 221 222 222 220 222 219 213 216 218 216 203 199 203 197 197 191 194 194 191 192 181 161 164 145 141 133 131 119 113 119 127 144 155 163 152 163 173 178 184 185 192 188 183 175 162 161 149 143 144 149 157 160 160 163 159 159 157 170 165 174 173 177 218
276 276 273 261 253 235 228 212 205 206 192 203 220 219 212 212 218 232 226 223 221 222 226 234 233 234 232 224 212 224 228 222 218 202 201 183 189 189 193 194 184 168 170 149 129 106 109 129 136 145 156 160 164 167 166 165 164 145 154 169 166 170 174 173 176 172 164 156 154 153 152 153 157 156 161 161 167 160 170 168 188 171 230 204 225
281 275 271 270 257 234 227 213 201 208 208 208 219 229 226 226 231 231 237 215 229 238 242 244 243 229 231 232 220 225 234 226 154 170 182 182 193 194 192 177 171 162 159 154 142 145 160 158 168 170 172 177 179 173 171 171 160 158 169 173 174 177 180 181 180 166 161 158 153 151 153 154 156 158 162 161 165 162 177 179 193 192 194 231 225
285 278 270 269 277 277 255 233 206 208 214 222 232 236 239 225 223 230 240 243 222 224 234 244 263 267 242 244 228 228 244 161 164 173 179 185 191 193 189 179 171 168 157 152 160 163 167 174 176 179 180 180 182 174 168 165 165 162 163 172 184 180 182 181 176 165 159 153 151 150 153 155 157 160 163 168 163 169 163 191 179 205 209 221 235
293 298 303 303 299 266 260 252 233 229 240 238 236 243 245 256 249 216 219 226 224 220 223 230 237 237 236 230 236 232 200 178 173 176 181 185 189 190 188 184 179 170 166 161 167 184 168 171 177 183 180 184 180 165 164 165 162 160 159 167 179 176 178 175 153 147 145 142 144 148 153 155 156 161 164 168 166 186 187 196 195 201 222 221 229
287 287 294 292 285 274 260 242 230 236 240 231 235 231 239 246 256 266 209 215 228 230 231 229 226 229 227 226 217 214 189 183 182 183 185 188 187 188 185 184 179 172 165 181 191 153 170 171 172 171 176 183 170 164 167 162 161 162 168 173 170 169 166 130 127 144 145 151 147 153 156 158 160 159 165 165 174 188 192 195 217 209 211 219 239
292 280 274 282 280 280 258 244 238 241 237 234 236 235 234 236 244 248 254 234 210 230 232 231 235 237 234 226 217 211 195 185 186 187 188 190 188 185 180 183 180 176 179 189 190 186 165 167 170 171 171 166 162 167 168 165 159 164 163 159 152 146 125 134 158 159 155 157 160 158 157 158 161 162 168 167 178 178 201 211 207 202 220 217 214
300 287 268 264 261 255 256 254 248 239 235 231 233 232 235 235 233 236 235 241 243 235 225 216 210 212 225 231 224 213 198 191 190 190 189 189 185 182 177 169 177 186 195 201 187 172 159 168 172 167 165 159 172 181 180 178 173 158 158 150 148 149 153 166 170 171 168 168 166 165 160 157 159 163 168 179 187 191 194 196 204 202 202 222 227
301 295 297 285 273 264 253 248 239 237 237 236 236 236 236 233 231 230 231 228 236 236 234 220 219 279 230 224 215 210 203 195 194 190 189 184 179 169 167 184 179 183 187 188 166 164 153 160 155 153 167 178 181 182 182 173 164 154 151 158 165 166 169 175 175 175 175 166 161 151 149 155 165 169 176 179 185 190 201 197 203 213 212 214 223
303 301 297 294 290 283 278 264 250 240 234 237 240 244 240 232 226 224 223 223 220 223 224 176 181 209 211 217 211 204 200 196 194 190 186 182 175 175 184 179 180 180 171 161 158 152 157 155 157 169 177 174 171 174 166 149 153 154 165 166 164 165 171 173 174 166 163 157 156 158 162 166 163 169 175 182 188 184 195 201 203 201 209 213 231
276 284 292 297 297 289 282 271 268 257 250 242 237 236 235 226 218 218 220 221 215 211 209 204 198 200 196 201 184 183 186 183 176 180 184 181 180 191 194 193 181 184 174 154 148 153 161 167 171 168 166 164 163 166 163 157 152 147 141 142 150 155 157 156 144 125 137 150 148 143 141 141 146 147 155 164 186 184 195 192 194 210 227 218 223
287 283 283 285 283 285 286 285 275 266 258 253 247 238 232 224 219 218 218 216 209 209 206 206 203 204 203 178 171 166 150 165 174 177 176 181 184 190 182 173 169 172 157 160 156 160 161 157 156 145 148 153 141 129 125 126 131 139 144 142 143 153 154 154 144 142 128 113 105 101 109 132 148 151 160 170 192 195 188 198 207 211 211 222 225
291 288 286 289 291 283 280 277 277 269 257 253 251 244 244 234 230 225 219 215 212 209 204 205 207 204 191 177 174 170 175 181 181 180 174 173 175 176 170 168 167 165 158 145 145 144 134 132 129 130 129 120 127 127 128 136 142 140 141 149 154 157 142 133 132 126 120 107 116 118 125 130 145 136 143 185 172 178 175 197 206 209 216 218 228
291 289 284 278 272 281 277 274 269 266 268 258 254 251 244 244 240 235 231 230 225 219 217 214 211 195 189 191 190 183 183 186 179 174 176 171 172 175 170 159 159 157 153 152 146 135 135 132 135 134 135 133 139 134 138 139 140 144 143 134 126 124 119 117 123 122 124 124 124 126 119 121 134 145 154 157 169 173 189 187 207 224 227 233 230
288 290 290 287 279 271 272 269 266 266 263 264 260 254 255 248 242 237 236 233 230 224 223 219 212 189 202 195 193 188 185 172 167 163 159 158 159 157 143 121 147 152 155 142 137 139 136 135 136 137 133 135 136 139 138 140 143 137 135 132 135 137 139 144 138 133 127 129 129 129 134 137 141 137 146 151 170 176 182 192 192 197 209 212 220
280 279 281 283 281 273 272 274 276 275 266 259 255 253 254 253 245 239 236 232 228 221 217 205 191 190 192 197 168 149 135 150 152 151 155 159 153 140 118 117 109 105 97 112 121 129 135 135 129 122 129 131 137 141 144 141 136 134 134 136 140 144 143 140 138 143 139 136 137 139 140 147 147 153 157 155 150 155 165 168 186 202 207 221 225
279 280 277 276 277 276 271 271 271 263 262 264 267 264 250 247 245 241 232 226 220 214 211 199 180 171 170 165 151 161 160 155 155 155 152 146 143 137 116 108 109 112 112 112 117 116 119 115 113 105 94 93 87 86 84 97 112 127 136 137 140 143 145 146 151 152 152 146 145 147 148 144 150 141 146 156 157 162 172 173 181 179 196 218 235
278 277 277 276 275 273 274 270 267 267 267 267 254 248 240 233 235 231 224 215 205 201 198 185 181 175 174 174 178 182 168 158 149 146 152 140 137 124 116 114 124 125 123 119 116 111 104 97 99 104 106 97 98 97 97 103 108 113 126 140 144 150 154 150 144 140 137 142 144 143 144 145 147 144 146 150 158 160 163 159 163 176 209 217 219
274 274 271 271 271 266 266 264 263 261 256 249 247 244 240 232 229 222 217 212 189 185 186 173 178 178 173 173 166 160 155 148 123 119 105 93 101 103 102 100 91 84 82 86 85 86 91 101 112 122 124 128 123 118 119 104 98 98 96 86 98 107 115 118 124 131 141 143 142 141 142 142 147 148 151 147 152 157 161 181 188 196 197 209 230
277 268 268 263 264 263 261 261 255 249 244 242 238 240 238 233 226 214 208 194 177 177 177 177 168 173 170 167 156 152 142 120 103 104 92 84 84 89 91 87 84 83 82 81 82 87 92 97 106 109 121 127 125 125 129 129 128 123 115 104 102 112 115 128 142 147 145 143 141 144 150 145 150 146 155 155 155 164 167 185 184 191 223 231 225
271 270 265 266 265 264 261 258 254 251 246 242 238 235 232 223 211 200 193 166 162 158 160 164 165 159 151 148 133 113 109 98 98 96 98 97 93 88 90 91 92 92 100 99 92 90 93 105 112 115 119 123 129 129 136 141 138 139 145 139 132 132 131 131 135 137 147 145 148 147 147 148 149 155 156 161 166 168 165 184 190 201 206 211 234
274 271 268 264 259 259 258 256 252 247 244 240 233 223 217 209 200 195 178 169 175 169 163 163 151 151 149 141 138 136 113 104 108 107 105 106 105 106 101 99 103 108 108 110 117 117 116 113 116 121 123 128 129 132 140 146 151 145 152 144 151 152 152 157 156 161 156 152 151 150 149 148 151 153 161 168 179 188 183 194 200 203 221 230 229
271 268 265 264 260 259 260 257 257 252 249 238 232 225 212 192 183 177 171 167 167 161 161 158 146 147 140 134 139 132 112 107 104 105 105 109 110 113 114 113 112 118 119 117 117 114 112 113 115 117 130 142 146 148 151 153 156 161 161 163 167 166 167 168 167 160 161 164 161 162 159 162 161 165 169 174 182 192 196 202 205 220 222 225 228
273 271 266 265 265 265 263 257 251 247 240 232 226 216 204 189 185 170 164 154 161 155 140 137 134 128 131 137 127 99 104 97 92 94 102 114 117 118 120 119 122 122 116 113 115 116 118 125 137 139 139 139 150 158 159 156 159 159 169 171 170 170 172 175 176 184 178 168 167 165 159 161 164 168 186 184 187 186 199 199 210 215 224 223 223